Total_Precipitation_Accumulation
0.05 0.09 0.15 0.19 0.17 0.13 0.09 0.07 0.09 0.16 0.31 0.39 0.49 0.54 0.55 0.56 0.53 0.48 0.43 0.39 0.32 0.30 0.31 0.39 0.52 0.55 0.60 0.70 0.89 0.92 1.05 1.18 1.24 1.34 1.41 1.46 1.53 1.54 1.49 1.48 1.49 1.61 1.69 1.68
0.04 0.07 0.11 0.13 0.16 0.11 0.09 0.07 0.07 0.15 0.34 0.42 0.42 0.46 0.55 0.56 0.56 0.53 0.43 0.39 0.41 0.43 0.41 0.43 0.48 0.55 0.61 0.65 0.80 0.99 1.24 1.50 1.52 1.60 1.67 1.77 1.90 1.98 1.90 1.85 1.90 1.95 1.90 1.82
0.07 0.10 0.11 0.15 0.15 0.12 0.14 0.13 0.14 0.22 0.33 0.37 0.42 0.51 0.70 0.72 0.67 0.66 0.59 0.55 0.57 0.63 0.59 0.56 0.56 0.59 0.65 0.71 0.84 1.06 1.30 1.55 1.73 1.84 1.91 2.01 2.12 2.14 2.08 2.13 2.25 2.28 2.16 1.98
0.12 0.16 0.22 0.19 0.19 0.17 0.19 0.22 0.26 0.34 0.37 0.47 0.65 0.76 0.88 0.92 0.82 0.78 0.70 0.63 0.64 0.73 0.77 0.72 0.70 0.77 0.86 0.99 1.14 1.33 1.50 1.68 1.83 1.86 1.88 1.95 2.03 1.98 1.99 2.10 2.17 2.20 2.15 2.02
0.22 0.25 0.24 0.26 0.29 0.30 0.34 0.46 0.46 0.54 0.59 0.68 0.76 0.76 0.81 0.77 0.67 0.62 0.60 0.66 0.70 0.76 0.85 0.88 0.89 0.96 1.02 1.11 1.22 1.39 1.53 1.60 1.64 1.75 1.82 1.86 1.89 1.93 1.99 1.99 1.90 1.82 1.81 1.83
0.36 0.38 0.40 0.42 0.44 0.41 0.47 0.87 0.90 0.83 0.79 0.77 0.80 0.97 0.92 0.73 0.66 0.64 0.62 0.64 0.73 0.73 0.77 0.86 0.96 0.95 0.98 1.07 1.23 1.42 1.57 1.59 1.60 1.70 1.75 1.79 1.83 1.88 1.87 1.81 1.76 1.72 1.67 1.70
0.49 0.53 0.48 0.47 0.42 0.40 0.71 1.01 0.98 0.96 1.00 0.93 0.99 1.04 0.95 0.79 0.77 0.71 0.67 0.64 0.67 0.74 0.80 0.85 0.94 0.97 1.03 1.12 1.23 1.32 1.40 1.45 1.51 1.64 1.75 1.78 1.82 1.80 1.77 1.73 1.76 1.78 1.71 1.63
0.65 0.79 0.82 0.61 0.51 0.71 0.94 0.83 0.97 1.08 1.07 1.03 0.96 0.88 0.89 0.86 0.87 0.82 0.74 0.75 0.77 0.82 0.95 1.01 1.05 1.06 1.11 1.08 1.09 1.18 1.19 1.22 1.23 1.32 1.46 1.52 1.58 1.58 1.61 1.58 1.54 1.53 1.51 1.43
0.88 0.98 0.82 0.70 0.73 0.81 0.83 0.84 0.89 1.00 1.08 1.04 1.05 1.01 0.88 0.82 0.79 0.89 0.93 0.91 0.88 0.87 0.92 0.98 1.08 1.14 1.18 1.11 1.03 1.01 1.01 0.99 1.02 1.06 1.24 1.39 1.42 1.40 1.42 1.42 1.40 1.36 1.33 1.28
1.06 1.13 0.99 0.91 0.87 0.81 0.79 0.81 0.81 0.91 1.05 1.11 1.06 0.91 0.82 0.72 0.63 0.60 0.62 0.66 0.73 0.78 0.86 1.00 0.98 0.99 1.04 1.04 0.98 0.99 1.01 1.01 1.04 1.11 1.22 1.44 1.52 1.41 1.36 1.34 1.29 1.27 1.23 1.23
1.17 1.23 1.05 0.95 0.89 0.92 0.86 0.82 0.82 0.92 1.01 1.00 0.89 0.82 0.76 0.67 0.57 0.51 0.48 0.50 0.54 0.60 0.63 0.70 0.72 0.75 0.79 0.83 0.88 0.91 0.90 0.87 0.86 0.94 1.07 1.27 1.39 1.36 1.22 1.19 1.22 1.25 1.23 1.19
1.25 1.14 1.16 1.18 1.08 1.03 1.05 1.01 0.97 1.00 1.04 0.95 0.84 0.77 0.70 0.59 0.51 0.47 0.45 0.45 0.51 0.54 0.56 0.58 0.63 0.72 0.80 0.90 0.98 0.97 0.91 0.85 0.82 0.83 0.92 1.11 1.31 1.38 1.23 1.04 1.06 1.04 0.99 0.96
1.07 1.03 1.15 1.21 1.23 1.24 1.28 1.21 1.13 1.11 1.03 0.90 0.88 0.78 0.67 0.61 0.54 0.51 0.47 0.47 0.51 0.55 0.58 0.65 0.67 0.65 0.68 0.80 0.90 0.95 0.93 0.88 0.84 0.83 0.87 0.98 1.21 1.44 1.49 1.25 1.04 0.94 0.83 0.73
1.03 1.05 1.23 1.30 1.35 1.38 1.35 1.28 1.21 1.21 1.12 0.98 0.88 0.77 0.69 0.70 0.64 0.57 0.56 0.59 0.66 0.68 0.70 0.72 0.73 0.70 0.67 0.73 0.82 0.88 0.91 0.88 0.80 0.76 0.79 0.88 1.10 1.39 1.56 1.50 1.32 1.07 0.81 0.65
1.06 1.14 1.17 1.11 1.18 1.22 1.24 1.21 1.13 1.20 1.15 1.05 0.89 0.75 0.65 0.63 0.65 0.64 0.64 0.72 0.84 0.84 0.79 0.76 0.73 0.71 0.68 0.71 0.77 0.81 0.86 0.86 0.80 0.79 0.81 0.84 1.02 1.28 1.47 1.53 1.44 1.29 0.98 0.69
1.04 1.07 0.96 0.92 1.01 1.08 1.11 1.07 0.98 1.04 1.04 0.99 0.92 0.83 0.73 0.68 0.68 0.67 0.71 0.82 0.98 1.00 0.87 0.81 0.78 0.78 0.78 0.78 0.74 0.72 0.74 0.75 0.66 0.64 0.68 0.70 0.80 1.01 1.25 1.38 1.32 1.24 1.05 0.68
0.99 1.05 1.00 0.93 0.99 1.07 1.08 1.00 0.95 0.95 0.96 0.99 1.00 0.94 0.90 0.87 0.85 0.85 0.91 0.97 1.02 0.99 0.89 0.82 0.78 0.74 0.73 0.77 0.78 0.72 0.68 0.65 0.57 0.49 0.54 0.58 0.64 0.83 1.07 1.24 1.19 1.10 0.96 0.64
0.85 0.81 0.83 0.82 0.88 0.95 0.93 0.83 0.83 0.84 0.88 0.97 1.02 1.00 1.04 1.03 1.02 1.08 1.12 1.10 1.00 0.86 0.77 0.74 0.68 0.64 0.62 0.59 0.57 0.55 0.55 0.57 0.53 0.50 0.53 0.55 0.58 0.74 0.97 1.13 1.10 1.04 0.93 0.70
0.64 0.60 0.61 0.59 0.62 0.68 0.69 0.66 0.64 0.66 0.69 0.77 0.82 0.86 0.90 0.92 0.94 1.03 1.05 1.15 1.18 1.06 0.83 0.65 0.64 0.56 0.54 0.50 0.47 0.43 0.42 0.43 0.41 0.42 0.45 0.45 0.54 0.71 0.87 0.95 0.93 0.89 0.78 0.66
0.60 0.60 0.51 0.48 0.48 0.49 0.50 0.50 0.49 0.52 0.56 0.63 0.64 0.64 0.70 0.76 0.85 0.99 1.07 1.17 1.22 1.12 0.92 0.75 0.60 0.49 0.41 0.34 0.32 0.33 0.36 0.39 0.40 0.42 0.44 0.51 0.60 0.73 0.79 0.78 0.76 0.73 0.70 0.70
0.60 0.59 0.46 0.41 0.38 0.36 0.36 0.36 0.35 0.38 0.43 0.46 0.47 0.48 0.53 0.62 0.72 0.90 1.19 1.37 1.20 0.97 0.82 0.72 0.54 0.41 0.34 0.30 0.26 0.26 0.30 0.34 0.39 0.46 0.49 0.54 0.63 0.71 0.73 0.72 0.67 0.64 0.65 0.67
0.61 0.54 0.47 0.41 0.36 0.36 0.32 0.31 0.31 0.32 0.33 0.33 0.35 0.41 0.47 0.57 0.69 0.79 0.95 1.22 1.23 1.11 0.82 0.60 0.45 0.35 0.31 0.29 0.26 0.28 0.30 0.31 0.37 0.43 0.46 0.50 0.60 0.68 0.66 0.60 0.56 0.54 0.57 0.64
0.61 0.53 0.51 0.47 0.40 0.36 0.32 0.30 0.30 0.31 0.29 0.29 0.32 0.37 0.44 0.54 0.65 0.89 1.03 0.94 0.97 1.08 0.83 0.60 0.51 0.41 0.29 0.24 0.27 0.29 0.30 0.34 0.41 0.44 0.42 0.45 0.47 0.52 0.56 0.53 0.53 0.54 0.59 0.60
0.60 0.54 0.49 0.41 0.37 0.36 0.36 0.32 0.30 0.33 0.29 0.26 0.24 0.26 0.33 0.46 0.53 0.65 0.81 0.87 0.89 0.94 0.74 0.57 0.48 0.37 0.29 0.26 0.30 0.35 0.42 0.48 0.48 0.43 0.38 0.39 0.42 0.45 0.50 0.50 0.47 0.52 0.56 0.57
0.60 0.51 0.45 0.39 0.37 0.36 0.34 0.29 0.28 0.31 0.28 0.26 0.24 0.24 0.26 0.34 0.49 0.63 0.70 0.75 0.87 0.91 0.78 0.63 0.49 0.42 0.36 0.38 0.42 0.51 0.57 0.51 0.44 0.38 0.35 0.36 0.40 0.45 0.46 0.49 0.52 0.52 0.52 0.54
0.56 0.52 0.46 0.40 0.36 0.34 0.33 0.31 0.30 0.28 0.27 0.27 0.27 0.24 0.26 0.31 0.40 0.51 0.61 0.66 0.73 0.83 0.77 0.59 0.43 0.39 0.40 0.45 0.50 0.54 0.52 0.47 0.42 0.40 0.38 0.39 0.42 0.45 0.45 0.47 0.52 0.51 0.52 0.53
0.50 0.48 0.48 0.45 0.42 0.37 0.35 0.36 0.35 0.32 0.30 0.33 0.37 0.37 0.38 0.41 0.45 0.51 0.57 0.63 0.64 0.63 0.58 0.47 0.37 0.36 0.35 0.37 0.41 0.44 0.44 0.44 0.44 0.44 0.44 0.45 0.47 0.48 0.45 0.42 0.42 0.43 0.42 0.42